#timestamp,LO_Frequency,Hit,StdDev 
1675126815.4,286047003.9,N
1675126835.3,286047001.8,N
1675126855.1,286047001.7,N
1675126875.8,286046999.7,N
1675126895.7,286046998.9,N
1675126915.5,286046997.2,N
1675126935.4,286046996.8,N
1675126955.2,286046997.2,N
1675126975.0,286046998.3,N
1675126975.9,286046998.3,N
1675126995.8,286047002.3,N
1675127015.6,286047004.2,N
1675127035.5,286047002.7,N
1675127055.3,286046998.6,N
1675127075.1,286046996.5,N
1675127095.9,286047000.2,N
1675127115.7,286047002.6,N
1675127135.6,286047004.3,N
1675127155.4,286047003.0,N
1675127175.2,286047006.0,N
1675127195.1,286047003.6,N
1675127196.0,286047003.6,N
1675127215.8,286047006.0,N
1675127235.7,286047004.4,N
1675127255.5,286047004.4,N
1675127275.3,286047002.7,N
1675127295.2,286047000.2,N
1675127315.9,286047000.3,N
1675127335.7,286047004.4,N
1675127355.6,286047001.4,N
1675127375.4,286047003.1,N
1675127395.3,286047005.7,N
1675127415.1,286047003.0,N
1675127416.0,286047003.0,N
1675127435.8,286047003.0,N
1675127455.7,286047003.9,N
1675127475.5,286047001.4,N
1675127495.3,286047004.2,N
1675127515.2,286047003.3,N
1675127535.0,286047004.3,N
1675127535.9,286047004.3,N
1675127555.8,286047004.1,N
1675127575.6,286047001.3,N
1675127595.4,286047004.0,N
1675127615.3,286047004.2,N
1675127635.1,286047005.6,Y
1675127655.8,286047003.8,P
1675127675.7,286046999.8,N
1675127695.5,286047000.5,N
1675127715.4,286047000.3,N
1675127735.2,286046999.8,N
1675127755.0,286046999.5,N
1675127755.9,286046999.5,N
1675127775.8,286046997.8,N
1675127795.6,286046994.1,Y
1675127815.5,286046993.8,P
1675127835.3,286046997.4,N
1675127855.1,286047000.0,N
1675127875.9,286047002.4,N
1675127895.7,286046999.4,N
1675127915.6,286046997.3,N
1675127935.4,286046997.3,N
1675127955.3,286046999.1,N
1675127975.1,286046998.3,N
1675127976.0,286046998.3,N
1675127995.8,286046995.5,N
1675128015.7,286046995.7,N
1675128035.5,286046997.5,N
1675128055.3,286046993.6,Y
1675128075.2,286046997.3,P
1675128095.0,286046998.2,P
1675128095.9,286046998.2,P
1675128115.8,286046999.4,N
1675128135.6,286046999.2,N
1675128155.5,286046997.5,Y
1675128175.3,286046996.7,P
1675128195.1,286046997.6,N
1675128215.9,286046995.5,P
1675128235.7,286046993.3,Y
1675128255.5,286046999.3,P
1675128275.4,286046998.7,N
1675128295.2,286047000.7,N
1675128315.1,286047002.6,N
1675128316.0,286047002.6,N
1675128335.8,286047002.9,N
1675128355.6,286047007.0,Y
1675128375.5,286047001.8,P
1675128395.3,286047002.9,P
1675128415.2,286047000.4,N
1675128435.9,286046999.5,N
1675128455.7,286047001.1,N
1675128475.6,286046998.4,N
1675128495.4,286046999.6,N
1675128515.2,286047001.2,N
1675128535.1,286047001.5,N
1675128536.0,286047001.5,N
1675128555.8,286047004.7,Y
1675128575.7,286047007.3,P
1675128595.5,286047005.5,N
1675128615.3,286047004.5,N
1675128635.2,286047007.1,N
1675128655.0,286047006.0,N
1675128655.9,286047006.0,N
1675128675.7,286047005.0,N
1675128695.6,286047008.7,Y
1675128715.4,286047005.6,P
1675128735.3,286047006.5,P
1675128755.1,286047003.3,P
1675128775.8,286047002.8,N
1675128795.7,286046997.2,N
1675128815.5,286046999.5,N
1675128835.4,286046995.6,N
1675128855.2,286046998.9,N
1675128875.0,286046999.0,N
1675128875.9,286046999.0,N
1675128895.8,286046997.1,N
1675128915.6,286046998.1,N
1675128935.4,286047000.7,N
1675128955.3,286047000.4,N
1675128975.1,286046998.1,N
1675128995.9,286047000.1,N
1675129015.7,286047001.0,N
1675129035.5,286046999.9,N
1675129055.4,286046998.2,N
1675129075.2,286047000.3,N
1675129095.0,286047000.2,N
1675129095.9,286047000.2,N
1675129115.8,286047000.4,N
1675129135.6,286046998.1,N
1675129155.5,286046999.3,N
1675129175.3,286046996.5,N
1675129195.1,286046997.6,N
1675129215.9,286046999.5,N
1675129235.7,286046998.1,N
1675129255.5,286047001.9,N
1675129275.4,286047000.9,N
1675129295.2,286046997.1,N
1675129315.1,286046996.5,N
1675129316.0,286046996.5,N
1675129335.8,286046998.6,N
1675129355.6,286047001.8,N
1675129375.5,286047000.4,N
1675129395.3,286046999.8,N
1675129415.2,286046997.7,N
1675129435.9,286046997.7,N
1675129455.7,286046997.2,N
1675129475.6,286046998.2,N
1675129495.4,286046995.3,N
1675129515.2,286046997.1,N
1675129535.1,286046999.4,N
1675129536.0,286046999.4,N
1675129555.8,286046998.9,N
1675129575.7,286047001.2,N
1675129595.5,286046998.5,N
1675129615.3,286046999.8,N
1675129635.2,286047000.5,N
1675129655.9,286047000.3,N
1675129675.7,286047000.3,N
1675129695.6,286046997.4,N
1675129715.4,286046996.7,N
1675129735.2,286047000.9,N
1675129755.1,286047002.8,N
1675129756.0,286047002.8,N
1675129775.8,286046998.1,N
1675129795.7,286046998.4,N
1675129815.5,286046995.2,N
1675129835.3,286046997.7,N
1675129855.2,286046997.8,N
1675129875.0,286046995.6,N
1675129875.9,286046995.6,N
1675129895.8,286046997.6,N
1675129915.6,286046999.2,N
1675129935.4,286046995.5,N
1675129955.3,286046998.6,N
1675129975.1,286046999.0,N
1675129995.8,286046994.0,N
1675130015.7,286046995.9,N
1675130035.5,286046996.8,N
1675130055.3,286047001.2,N
1675130075.2,286047000.7,N
1675130095.0,286047000.6,N
1675130095.9,286047000.6,N
1675130115.8,286047000.4,N
1675130135.6,286046998.3,N
1675130155.4,286046999.3,N
1675130175.3,286046997.3,N
1675130195.1,286046997.1,N
1675130215.9,286046999.6,N
1675130235.7,286046997.4,N
1675130255.5,286047001.2,N
1675130275.4,286047000.4,N
1675130295.2,286047000.4,N
1675130315.0,286047001.2,N
1675130315.9,286047001.2,N
1675130335.8,286046998.1,N
1675130355.6,286047000.4,N
1675130375.4,286047002.3,N
1675130395.3,286047001.6,N
